DW8816 Weather Reports


time (UTC)temp
F
wind
direction
speed
knots
gust
knots
rain 1hr
in
rain 24hr
in
rain mn
in
humidity
%
barometer
mb
20260506014003 48 14 3.5 9.6 0.00 0.00 0.00 84 1012.0
20260506012004 49 25 2.6 8.7 0.00 0.00 0.00 83 1012.1
20260506011003 49 11 2.6 7.0 0.00 0.00 0.00 83 1012.1
20260506005003 49 39 3.5 7.0 0.00 0.00 0.00 85 1012.2
20260506004002 49 30 3.5 8.7 0.00 0.00 0.00 85 1012.2
20260506003003 49 32 2.6 8.7 0.00 0.00 0.00 85 1012.2
20260506002004 49 18 3.5 7.8 0.00 0.00 0.00 85 1012.3
20260506001004 49 28 2.6 9.6 0.00 0.00 0.00 85 1012.4
20260506000003 50 26 3.5 8.7 0.00 0.00 0.00 85 1012.3
20260505235002 50 14 2.6 7.8 0.00 0.00 0.00 84 1012.2
20260505234003 50 20 3.5 9.6 0.00 0.00 0.00 84 1012.2
20260505233003 50 28 3.5 7.0 0.00 0.00 0.00 83 1012.2
20260505231003 50 35 1.7 8.7 0.00 0.00 0.00 82 1012.3
20260505225003 51 46 3.5 11.3 0.00 0.00 0.00 80 1012.4
20260505224002 51 29 3.5 11.3 0.00 0.00 0.00 80 1012.2
20260505223003 51 36 2.6 8.7 0.00 0.00 0.00 80 1012.2
20260505222003 51 43 3.5 9.6 0.00 0.00 0.00 81 1012.2
20260505221004 52 42 3.5 11.3 0.00 0.00 0.00 81 1012.4
20260505220003 52 31 3.5 7.8 0.00 0.00 0.00 80 1012.2
20260505215002 52 19 3.5 9.6 0.00 0.00 0.00 79 1012.2
20260505214003 52 40 3.5 9.6 0.00 0.00 0.00 78 1012.1
20260505213002 53 28 2.6 8.7 0.00 0.00 0.00 78 1012.0
20260505211004 54 54 5.2 12.2 0.00 0.00 0.00 75 1011.9
20260505210003 54 32 2.6 13.9 0.00 0.00 0.00 74 1011.8
20260505205002 54 40 3.5 9.6 0.00 0.00 0.00 75 1011.8
20260505204003 54 37 3.5 9.6 0.00 0.00 0.00 75 1011.7
20260505202003 54 23 4.3 10.4 0.00 0.00 0.00 74 1011.6
20260505201003 55 19 4.3 10.4 0.00 0.00 0.00 74 1011.5
20260505200003 55 24 3.5 10.4 0.00 0.00 0.00 74 1011.4
20260505195003 55 29 4.3 10.4 0.00 0.00 0.00 74 1011.2
20260505193003 55 25 3.5 10.4 0.00 0.00 0.00 74 1011.1
20260505192003 56 21 3.5 9.6 0.00 0.00 0.00 74 1010.9
20260505190003 57 13 2.6 12.2 0.00 0.00 0.00 75 1010.7
20260505185003 57 23 2.6 7.8 0.00 0.00 0.00 75 1010.7
20260505183003 57 22 4.3 9.6 0.00 0.00 0.00 73 1010.6
20260505182003 58 6 2.6 9.6 0.00 0.00 0.00 72 1010.5
20260505181003 58 1 2.6 7.8 0.00 0.00 0.00 70 1010.5
20260505180004 58 9 3.5 7.0 0.00 0.00 0.00 69 1010.4
20260505174003 58 20 3.5 7.0 0.00 0.00 0.00 68 1010.5
20260505173003 59 359 4.3 8.7 0.00 0.00 0.00 68 1010.5
20260505172003 59 353 3.5 10.4 0.00 0.00 0.00 68 1010.5
20260505170003 59 351 3.5 8.7 0.00 0.00 0.00 67 1010.5
20260505165004 59 7 3.5 8.7 0.00 0.00 0.00 67 1010.5
20260505164003 60 5 3.5 9.6 0.00 0.00 0.00 66 1010.5
20260505163003 60 343 3.5 8.7 0.00 0.00 0.00 65 1010.5
20260505162003 60 349 3.5 10.4 0.00 0.00 0.00 66 1010.5
20260505161003 60 343 3.5 8.7 0.00 0.00 0.00 66 1010.5
20260505153003 60 349 2.6 7.0 0.00 0.00 0.00 63 1010.6
20260505152004 61 350 3.5 7.0 0.00 0.00 0.00 63 1010.6
20260505151003 61 340 2.6 8.7 0.00 0.00 0.00 63 1010.7
20260505125003 59 1 2.6 7.8 0.00 0.00 0.00 67 1011.3
20260505123003 60 6 2.6 5.2 0.00 0.00 0.00 66 1011.3
20260505122004 60 71 2.6 9.6 0.00 0.00 0.00 65 1011.3
20260505121003 60 61 1.7 7.0 0.00 0.00 0.00 65 1011.2
20260505120004 60 41 3.5 7.0 0.00 0.00 0.00 68 1011.3
20260505115003 59 8 2.6 7.8 0.00 0.00 0.00 67 1011.3
20260505114005 59 52 3.5 8.7 0.00 0.00 0.00 69 1011.4
20260505113004 58 13 2.6 7.0 0.00 0.00 0.00 70 1011.5
20260505112004 58 41 2.6 7.0 0.00 0.00 0.00 70 1011.5
20260505111005 58 54 2.6 7.0 0.00 0.00 0.00 70 1011.7
20260505102003 57 38 2.6 7.8 0.00 0.00 0.00 73 1012.0
20260505101003 57 28 3.5 7.0 0.00 0.00 0.00 75 1012.0
20260505100004 57 13 2.6 8.7 0.00 0.00 0.00 75 1012.0
20260505095003 57 30 2.6 10.4 0.00 0.00 0.00 78 1012.0
20260505094003 56 11 4.3 9.6 0.00 0.00 0.00 80 1012.2
20260505093003 55 36 2.6 10.4 0.00 0.00 0.00 79 1012.2
20260505092003 54 13 3.5 8.7 0.00 0.00 0.00 82 1012.2
20260505090004 53 355 2.6 7.0 0.00 0.00 0.00 87 1012.4
20260505085003 52 4 2.6 7.8 0.00 0.00 0.00 89 1012.5
20260505083003 51 346 1.7 7.0 0.00 0.00 0.00 90 1012.5
20260505082004 51 14 1.7 3.5 0.00 0.00 0.00 91 1012.4
20260505081004 51 6 2.6 5.2 0.00 0.00 0.00 91 1012.4
20260505080004 51 355 0.9 5.2 0.00 0.00 0.00 92 1012.3
20260505074003 51 342 0.9 3.5 0.00 0.00 0.00 93 1012.5
20260505072002 50 348 0.9 4.3 0.00 0.00 0.00 93 1012.4
20260505071003 50 347 1.7 3.5 0.00 0.00 0.00 94 1012.6
20260505070003 50 349 0.9 4.3 0.00 0.00 0.00 94 1012.6
20260505065003 50 349 0.9 2.6 0.00 0.00 0.00 94 1012.6
20260505064003 50 349 0.9 2.6 0.00 0.00 0.00 94 1012.7
20260505062003 50 349 0.9 2.6 0.00 0.00 0.00 94 1012.6
20260505061004 50 349 0.9 3.5 0.00 0.00 0.00 94 1012.6
20260505060003 49 349 0.9 3.5 0.00 0.00 0.00 94 1012.6
20260505055003 49 350 0.9 3.5 0.00 0.00 0.00 94 1012.7
20260505054003 49 350 0.9 3.5 0.00 0.00 0.00 94 1012.8
20260505053003 49 2 1.7 4.3 0.00 0.00 0.00 94 1012.8
20260505051003 49 29 0.0 2.6 0.00 0.00 0.00 94 1012.8
20260505041003 48 30 0.9 2.6 0.00 0.00 0.00 94 1012.9
20260505035003 48 30 0.0 1.7 0.00 0.00 0.00 94 1012.8
20260505033003 48 30 0.0 2.6 0.00 0.00 0.00 94 1012.9
20260505032003 48 0 0.0 1.7 0.00 0.00 0.00 93 1013.0
20260505031003 48 36 0.9 3.5 0.00 0.00 0.00 93 1012.9
20260505030003 48 42 0.9 1.7 0.00 0.00 0.00 93 1012.9
20260505025004 49 42 0.0 1.7 0.00 0.00 0.00 92 1012.8
20260505022004 50 42 0.0 2.6 0.00 0.00 0.00 92 1012.7
20260505021003 50 43 0.0 1.7 0.00 0.00 0.00 91 1012.8
20260505020004 50 42 0.9 2.6 0.00 0.00 0.00 91 1012.6
20260505015003 51 42 0.9 3.5 0.00 0.00 0.00 91 1013.0